Date,TemperatureHighF,TemperatureAvgF,TemperatureLowF,DewpointHighF,DewpointAvgF,DewpointLowF,HumidityHigh,HumidityAvg,HumidityLow,PressureMaxIn,PressureMinIn,WindSpeedMaxMPH,WindSpeedAvgMPH,GustSpeedMaxMPH,PrecipitationSumIn
2013-1-1,34.2,25.2,15.4,34.2,25.0,15.3,100,99,94,30.28,30.06,10,1,19,0.00
2013-1-2,38.1,24.4,12.6,26.5,20.8,12.4,100,88,60,30.28,30.16,8,2,16,0.00
2013-1-3,42.3,30.4,19.0,32.8,26.8,19.1,100,88,60,30.43,30.26,9,2,13,0.00
2013-1-4,49.3,33.8,17.8,30.4,26.1,17.6,100,76,45,30.45,30.30,8,3,16,0.00
2013-1-5,44.8,38.5,33.1,36.8,32.3,26.5,90,78,69,30.31,30.14,10,4,23,0.00
2013-1-6,43.0,31.8,23.4,31.9,25.4,19.7,96,79,49,30.38,30.22,8,2,12,0.00
2013-1-7,53.2,38.4,23.9,32.1,27.2,20.8,90,67,39,30.35,30.10,10,3,20,0.00
2013-1-8,47.7,40.2,34.0,47.5,34.4,26.9,100,80,66,30.21,30.09,5,3,12,0.21
2013-1-9,55.2,47.7,40.3,49.0,44.0,39.3,100,88,64,30.38,30.20,10,4,16,0.01
2013-1-10,58.1,50.5,45.0,55.9,48.7,38.9,100,94,62,30.24,29.82,7,3,19,0.13
2013-1-11,67.5,57.9,48.0,51.7,49.2,47.5,100,75,51,29.85,29.69,16,8,33,0.00
2013-1-12,61.0,38.5,24.4,51.2,32.4,23.0,100,81,41,30.03,29.77,15,6,26,0.12
2013-1-13,25.0,20.2,13.5,23.0,18.2,12.9,100,92,82,30.36,30.02,0,0,0,0.00
2013-1-14,29.3,19.0,9.0,22.1,16.4,8.6,100,90,71,30.48,30.35,0,0,0,0.01
2013-1-15,30.0,21.3,14.2,23.2,18.8,14.0,100,90,73,30.35,30.18,0,0,0,0.00
2013-1-16,44.2,27.6,10.9,28.9,20.7,10.5,100,78,49,30.20,30.08,8,1,16,0.05
2013-1-17,45.9,35.2,27.0,35.1,29.7,22.7,98,81,62,30.47,30.18,12,4,19,0.00
2013-1-18,58.6,44.0,27.1,35.9,31.1,25.8,96,64,31,30.48,30.15,14,6,33,0.00
2013-1-19,62.8,50.9,41.0,41.9,37.8,33.8,83,62,44,30.23,30.05,12,6,24,0.00
2013-1-20,52.0,39.5,26.8,35.2,27.7,17.3,86,64,41,30.33,30.17,12,5,23,0.00
2013-1-21,33.6,25.7,19.6,19.3,16.2,14.2,81,67,52,30.41,30.32,11,5,25,0.00
2013-1-22,43.2,28.3,18.3,27.2,20.4,13.5,85,73,52,30.35,30.21,7,1,12,0.00
2013-1-23,57.4,38.5,22.5,43.2,31.5,19.1,95,77,59,30.31,30.15,9,2,17,0.00
2013-1-24,36.0,32.1,25.7,27.5,20.6,16.4,78,63,47,30.38,30.13,13,6,26,0.00
2013-1-25,49.5,37.8,32.5,30.1,27.7,22.7,87,68,45,30.27,30.12,8,2,13,0.00
2013-1-26,63.5,46.7,30.4,32.0,28.1,24.0,89,54,23,30.27,30.11,7,2,17,0.00
2013-1-27,63.7,55.7,45.7,59.7,50.4,27.0,94,83,40,30.12,29.87,16,8,40,0.00
2013-1-28,75.6,68.5,61.5,65.8,63.8,59.3,96,85,68,29.93,29.77,14,10,34,0.00
2013-1-29,70.3,59.2,41.2,66.2,56.9,41.2,100,93,83,29.77,29.48,16,7,34,1.44
2013-1-30,41.5,31.6,24.4,41.5,28.8,21.1,100,89,79,30.06,29.52,18,3,28,0.01
2013-1-31,37.6,25.6,15.3,29.9,20.8,8.8,100,82,65,30.46,29.98,18,5,24,0.00
2013-2-1,36.7,23.2,0.0,22.6,14.7,6.6,90,71,46,30.47,30.17,6,2,14,0.00
2013-2-2,54.0,39.7,24.6,38.6,30.9,20.0,89,71,54,30.24,30.14,8,3,16,0.00
2013-2-3,44.4,38.7,34.2,33.6,31.5,29.6,83,75,65,30.28,30.16,9,4,14,0.00
2013-2-4,43.7,37.8,33.8,36.6,33.0,26.9,94,83,61,30.40,30.12,7,3,10,1.45
2013-2-5,62.1,43.1,26.1,43.7,34.2,26.1,100,75,36,30.26,30.11,11,2,18,0.00
2013-2-6,69.3,51.1,35.8,45.1,38.6,32.0,87,65,37,30.28,30.11,9,2,20,0.00
2013-2-7,53.2,48.5,38.7,52.1,46.7,37.9,100,94,68,30.32,30.05,14,4,23,0.40
2013-2-8,49.5,38.3,32.7,39.7,34.8,31.1,98,88,66,30.50,30.32,11,5,20,0.00
2013-2-9,46.8,39.5,33.6,42.3,36.5,33.4,100,90,65,30.39,29.97,7,3,20,0.07
2013-2-10,60.3,51.4,39.2,54.1,40.8,29.2,100,72,34,30.21,29.79,18,9,34,0.11
2013-2-11,51.1,38.8,28.4,32.3,29.5,26.0,91,71,46,30.38,30.21,10,3,14,0.00
2013-2-12,42.4,33.9,25.7,37.5,31.5,24.2,100,91,75,30.34,30.14,8,2,14,0.13
2013-2-13,51.4,39.0,31.6,41.5,35.2,31.6,100,88,63,30.18,30.08,11,4,25,0.19
2013-2-14,54.1,44.3,34.3,38.5,34.0,29.7,85,68,50,30.36,30.10,11,5,16,0.00
2013-2-15,41.7,33.5,25.2,32.7,21.7,12.4,92,64,35,30.54,30.35,14,6,24,0.00
2013-2-16,38.3,31.8,25.5,28.8,24.4,20.5,100,76,52,30.51,30.28,9,4,14,0.00
2013-2-17,67.8,50.1,33.6,35.5,28.6,18.8,64,45,26,30.29,29.95,13,5,27,0.04
2013-2-18,61.9,50.7,32.5,55.0,40.7,24.2,88,70,41,30.12,29.55,24,12,39,0.02
2013-2-19,42.8,32.9,24.3,24.3,19.1,13.5,91,59,34,30.30,30.12,14,4,23,0.00
2013-2-20,35.6,30.3,25.2,23.4,16.3,12.3,70,56,46,30.30,30.06,8,3,16,0.00
2013-2-21,33.4,31.0,28.8,33.3,30.0,23.3,100,96,71,30.07,29.68,6,1,17,1.03
2013-2-22,33.3,25.8,20.5,33.3,24.0,20.3,100,93,78,30.10,29.81,0,0,0,0.15
2013-2-23,39.0,27.4,14.9,27.8,22.8,14.9,100,84,59,30.09,29.95,6,1,12,0.01
2013-2-24,59.5,41.5,26.2,41.4,33.0,23.7,92,74,49,29.98,29.82,5,2,13,0.00
2013-2-25,41.2,36.5,34.0,36.9,34.2,31.8,100,92,70,29.88,29.48,20,8,33,0.37
2013-2-26,35.6,33.5,32.2,34.9,33.3,32.2,100,99,96,29.86,29.41,15,4,23,0.18
2013-2-27,37.0,33.1,31.1,33.6,31.4,29.1,100,93,78,30.05,29.82,11,5,21,0.00
2013-2-28,34.7,32.4,30.6,30.4,29.5,28.0,96,89,82,30.18,30.04,12,6,17,0.00
2013-3-1,31.3,29.2,27.0,28.8,26.0,22.8,94,88,76,30.26,30.14,13,7,21,0.00
2013-3-2,36.9,28.6,23.4,26.1,23.6,21.4,99,82,61,30.32,30.17,10,4,16,0.00
2013-3-3,62.1,43.3,25.3,37.3,30.8,22.6,91,64,37,30.17,29.74,11,3,22,0.00
2013-3-4,71.1,53.4,41.7,48.6,40.3,33.8,80,63,39,29.91,29.58,18,5,32,0.00
2013-3-5,43.2,36.8,30.4,37.4,28.6,21.3,100,73,54,30.32,29.90,21,11,34,0.05
2013-3-6,45.3,33.5,23.5,29.1,25.4,21.1,91,73,50,30.40,30.23,14,4,22,0.00
2013-3-7,68.4,48.9,32.2,34.2,29.2,21.9,87,54,20,30.25,30.08,7,2,21,0.00
2013-3-8,67.3,53.5,41.7,45.7,39.7,32.3,81,61,43,30.20,30.00,10,3,23,0.02
2013-3-9,71.4,59.2,51.3,59.5,51.0,42.3,100,75,53,30.01,29.63,16,6,39,0.71
2013-3-10,57.0,44.4,29.5,56.0,44.3,29.3,100,100,86,29.93,29.60,11,4,23,0.25
2013-3-11,45.1,34.2,26.8,31.6,27.0,23.3,100,77,43,30.01,29.89,10,3,21,0.00
2013-3-12,53.4,40.1,27.7,35.1,29.3,23.0,97,68,39,30.31,30.00,14,4,27,0.00
2013-3-13,49.3,36.7,25.2,28.1,25.1,22.2,92,65,38,30.46,30.31,9,2,13,0.00
2013-3-14,73.8,54.3,34.3,47.0,35.7,24.1,73,51,35,30.32,30.05,15,5,30,0.00
2013-3-15,81.0,65.8,48.2,52.3,48.7,42.0,81,57,31,30.08,29.73,14,6,27,0.00
2013-3-16,69.8,55.5,42.6,50.2,45.9,37.2,86,71,49,29.91,29.72,18,10,30,0.00
2013-3-17,43.5,40.3,37.0,43.0,40.2,37.0,100,100,86,29.94,29.68,16,6,30,0.27
2013-3-18,55.8,44.7,38.5,42.7,37.5,27.9,100,79,37,30.04,29.68,14,5,25,0.04
2013-3-19,52.5,41.1,29.7,36.7,28.8,19.4,92,65,31,30.24,30.01,16,4,26,0.00
2013-3-20,44.1,35.6,27.5,34.9,23.0,14.5,100,65,33,30.36,30.10,15,6,28,0.00
2013-3-21,41.4,33.8,29.3,33.4,24.2,15.5,100,71,37,30.10,29.82,6,2,16,0.00
2013-3-22,41.2,36.4,32.5,39.8,36.1,32.5,100,99,94,29.94,29.82,8,3,13,0.12
2013-3-23,40.6,38.0,36.0,40.6,38.0,35.8,100,100,100,29.93,29.72,13,6,22,0.05
2013-3-24,37.9,31.4,25.7,37.8,30.8,23.8,100,98,87,30.09,29.65,18,10,31,0.17
2013-3-25,34.0,28.3,23.0,27.7,24.8,20.5,95,87,69,30.32,30.08,14,7,24,0.00
2013-3-26,43.7,31.8,20.8,29.7,26.2,20.9,100,81,55,30.40,30.27,9,3,14,0.00
2013-3-27,65.1,44.7,27.1,34.9,29.2,23.9,92,61,23,30.29,30.12,8,2,21,0.00
2013-3-28,73.8,59.2,46.0,52.9,44.0,34.5,72,57,46,30.17,30.07,9,3,19,0.00
2013-3-29,71.1,60.3,52.3,61.3,54.7,49.8,100,83,59,30.17,30.07,10,2,14,0.31
2013-3-30,73.0,59.7,54.0,62.0,55.8,51.9,100,88,60,30.08,29.83,19,3,30,0.54
2013-3-31,68.0,57.4,46.9,55.2,48.3,42.1,100,75,42,29.98,29.84,22,3,32,0.04
2013-4-1,51.4,44.3,41.0,43.8,38.0,30.4,100,79,59,30.20,29.94,16,7,25,0.01
2013-4-2,41.4,38.5,34.9,37.8,35.4,30.9,99,89,67,30.26,30.19,9,3,17,0.19
2013-4-3,53.6,44.5,35.6,36.6,31.2,26.5,93,62,37,30.27,30.14,13,6,24,0.01
2013-4-4,58.8,49.0,39.4,37.8,34.3,28.8,79,59,35,30.15,30.05,12,3,19,0.00
2013-4-5,73.8,53.6,32.0,48.6,38.6,31.2,99,63,25,30.17,29.93,8,2,15,0.00
2013-4-6,76.3,65.5,57.4,54.4,47.8,37.8,63,53,39,29.94,29.75,19,9,41,0.01
2013-4-7,79.9,68.2,58.1,64.2,58.4,51.7,94,72,51,29.88,29.69,12,5,28,0.00
2013-4-8,76.1,68.0,62.4,64.5,61.5,58.4,92,80,66,30.46,29.67,12,5,26,0.00
2013-4-9,79.2,71.9,64.4,68.1,63.9,60.4,91,76,67,29.75,29.66,11,4,29,0.00
2013-4-10,71.1,45.5,35.8,62.2,44.9,35.8,100,98,73,29.91,29.68,11,5,22,1.06
2013-4-11,50.4,39.9,33.4,37.3,34.8,32.2,100,84,57,29.87,29.73,10,5,20,0.01
2013-4-12,55.8,43.8,33.4,39.2,35.6,31.0,98,75,51,30.01,29.78,12,4,24,0.00
2013-4-13,74.1,54.6,33.8,50.8,42.9,33.6,100,70,38,30.04,29.74,13,3,27,0.00
2013-4-14,81.9,71.2,39.2,79.4,68.0,37.1,100,90,68,30.48,29.70,17,7,37,0.15
2013-4-15,70.7,56.9,49.3,62.8,50.5,40.8,95,79,62,30.19,27.03,16,9,27,0.00
2013-4-16,53.4,48.2,45.1,52.0,48.0,45.1,100,99,90,30.30,30.15,14,9,24,0.01
2013-4-17,84.4,68.5,47.8,73.8,63.9,47.8,100,87,63,30.24,29.84,14,5,31,0.00
2013-4-18,70.7,47.3,38.1,69.8,44.8,29.9,100,91,72,30.26,29.75,14,7,25,0.00
2013-4-19,57.0,43.9,33.8,37.6,32.1,28.1,88,66,37,30.34,30.23,11,5,25,0.00
2013-4-20,70.7,52.3,33.4,44.9,38.6,33.3,100,65,30,30.45,30.33,5,1,12,0.00
2013-4-21,72.5,61.2,52.2,47.2,41.7,34.6,74,51,27,30.50,30.36,10,3,27,0.00
2013-4-22,73.8,61.3,48.6,52.7,45.7,41.4,78,58,37,30.42,30.15,8,2,21,0.00
2013-4-23,63.0,43.7,36.1,55.4,43.3,36.1,100,99,66,30.40,30.13,16,8,28,0.01
2013-4-24,53.2,41.9,32.9,37.2,33.8,27.7,100,76,44,30.54,30.39,12,4,22,0.00
2013-4-25,72.7,54.7,34.0,44.1,36.6,30.1,91,55,23,30.61,30.41,8,2,14,0.00
2013-4-26,61.0,51.2,47.3,51.3,47.7,38.3,100,90,44,30.57,30.38,10,3,28,1.30
2013-4-27,54.1,51.2,49.3,53.6,51.2,49.3,100,100,100,30.38,30.27,8,3,12,0.00
2013-4-28,77.7,61.5,50.7,60.8,55.2,50.5,100,82,49,30.29,30.10,6,2,12,0.00
2013-4-29,89.1,73.8,57.7,65.4,58.2,53.8,91,62,32,30.13,29.98,12,5,22,0.31
2013-4-30,87.3,75.8,66.4,60.6,55.2,44.8,75,52,24,30.11,30.01,12,6,28,0.00
2013-5-1,89.1,73.9,60.4,67.4,61.3,52.4,86,66,47,30.31,30.11,7,2,16,0.00
2013-5-2,68.5,44.6,32.5,64.3,43.7,32.5,100,97,85,30.58,30.30,14,8,33,0.21
2013-5-3,41.5,37.0,32.7,41.4,36.9,32.7,100,99,94,30.55,30.19,12,7,23,0.43
2013-5-4,46.4,39.2,33.1,43.7,38.3,33.1,100,97,81,30.28,30.10,6,2,12,0.19
2013-5-5,57.9,47.8,35.2,53.6,46.3,35.2,100,95,83,30.35,30.26,8,3,18,0.01
2013-5-6,62.8,52.1,48.9,57.5,51.5,48.9,100,98,81,30.37,30.28,6,3,12,0.00
2013-5-7,78.4,60.6,42.1,63.9,52.9,42.1,100,80,46,30.36,30.23,5,1,9,0.00
2013-5-8,80.4,65.0,54.9,66.4,59.2,53.2,100,83,52,30.35,30.14,8,2,22,0.18
2013-5-9,78.1,68.0,60.6,67.1,63.4,60.5,100,86,62,30.21,30.13,6,2,16,0.30
2013-5-10,66.9,60.9,50.2,63.7,58.5,50.2,100,92,72,30.33,30.16,9,3,17,0.30
2013-5-11,71.8,58.2,44.6,59.9,47.1,36.1,100,72,30,30.48,30.32,15,4,22,0.00
2013-5-12,67.1,53.4,36.3,46.7,39.6,30.5,100,64,32,30.54,30.41,6,1,10,0.00
2013-5-13,82.9,65.3,45.7,60.3,52.4,44.0,95,67,39,30.42,30.26,6,2,18,0.00
2013-5-14,90.5,77.6,66.7,63.3,57.2,52.5,79,51,33,30.26,30.16,9,5,25,0.00
2013-5-15,81.0,71.3,63.5,71.6,63.6,55.0,100,78,56,30.21,30.11,9,4,24,0.11
2013-5-16,75.2,66.7,61.2,70.6,65.3,61.0,100,95,76,30.16,30.07,5,1,12,0.01
2013-5-17,82.4,70.1,59.4,71.0,65.1,59.0,100,86,62,30.19,30.11,6,0,12,0.00
2013-5-18,87.8,75.8,63.1,78.9,72.4,63.0,100,90,70,30.18,30.01,9,2,17,0.00
2013-5-19,89.2,77.3,67.1,75.5,69.5,64.4,100,79,53,30.12,29.85,11,4,30,0.07
2013-5-20,72.3,63.8,61.9,67.3,63.3,61.9,100,98,84,30.08,30.03,10,4,19,0.69
2013-5-21,70.3,63.3,59.9,67.4,62.5,59.9,100,97,89,30.10,29.91,8,2,26,0.01
2013-5-22,72.5,63.9,56.5,63.3,59.6,56.3,100,87,65,30.20,30.03,6,2,16,0.00
2013-5-23,71.8,63.5,53.8,62.9,58.7,53.8,100,85,67,30.43,30.19,6,3,13,0.00
2013-5-24,79.2,66.3,55.0,64.0,58.3,54.5,100,78,56,30.54,30.40,5,1,18,0.00
2013-5-25,86.4,75.5,61.2,71.5,66.1,54.4,95,73,55,30.44,30.28,10,3,22,0.00
2013-5-26,85.3,75.4,66.0,72.9,69.1,66.0,100,82,64,30.35,30.20,12,4,29,0.00
2013-5-27,86.0,76.6,68.7,74.0,69.7,64.0,98,80,63,30.22,29.99,16,7,35,0.00
2013-5-28,83.3,77.0,73.6,73.3,70.0,68.0,89,79,68,30.11,29.97,12,7,29,0.00
2013-5-29,83.3,76.3,67.6,71.8,69.1,63.0,89,79,64,30.11,29.96,11,6,28,0.00
2013-5-30,78.3,67.1,62.6,73.3,66.4,62.4,100,98,83,30.08,29.94,14,3,28,2.33
2013-5-31,86.0,74.1,65.7,77.5,71.7,65.7,100,93,73,30.09,29.89,10,5,27,0.00
2013-6-1,77.2,67.9,61.5,68.2,63.9,60.3,100,88,64,30.25,29.93,8,2,16,0.00
2013-6-2,65.1,60.7,52.2,62.4,57.9,52.0,100,91,77,30.33,30.23,7,3,15,0.00
2013-6-3,79.3,63.8,46.8,64.3,57.3,46.6,100,82,53,30.32,30.14,4,1,10,0.00
2013-6-4,77.2,69.0,63.1,71.0,65.7,60.6,100,89,73,30.25,30.15,6,2,16,0.00
2013-6-5,72.5,67.1,61.9,71.0,66.3,61.9,100,97,89,30.22,30.14,6,2,10,1.45
2013-6-6,73.8,67.1,57.9,67.0,62.4,57.9,100,86,59,30.21,30.15,7,2,16,0.00
2013-6-7,75.6,64.4,52.2,64.7,57.6,52.2,100,81,51,30.26,30.16,8,2,14,0.00
2013-6-8,83.3,69.6,54.0,67.0,61.7,54.0,100,79,53,30.20,30.07,6,2,16,0.00
2013-6-9,81.9,72.1,63.1,70.2,65.2,61.8,100,80,54,30.15,30.07,8,2,21,0.15
2013-6-10,89.4,83.1,78.4,75.7,73.8,71.9,81,74,64,30.14,30.11,4,2,10,0.00
2013-6-11,94.5,84.4,75.4,74.6,71.9,66.0,85,68,41,30.23,30.12,9,5,30,0.00
2013-6-12,92.3,84.0,76.3,78.2,75.0,71.5,93,75,53,30.18,30.10,13,6,30,0.00
2013-6-13,85.3,77.6,68.7,76.0,70.0,63.2,99,78,61,30.30,30.17,5,2,12,0.00
2013-6-14,93.4,79.5,66.6,82.1,74.5,66.4,100,86,64,30.28,30.16,5,2,13,0.00
2013-6-15,91.8,76.1,68.0,80.1,72.8,68.0,100,90,68,30.29,30.17,6,2,20,3.28
2013-6-16,90.1,78.1,66.9,80.5,74.8,67.0,100,90,70,30.25,30.14,5,1,14,0.00
2013-6-17,77.4,71.4,67.6,75.8,70.2,64.8,100,96,81,30.24,30.14,6,2,19,0.19
2013-6-18,87.3,70.7,62.6,74.9,68.2,62.4,100,93,62,30.29,30.21,3,0,9,0.00
2013-6-19,89.2,75.9,62.1,75.5,69.7,61.9,100,83,52,30.30,30.21,4,1,15,0.00
2013-6-20,92.1,79.6,66.6,78.5,73.5,66.2,100,83,62,30.31,30.20,8,3,19,0.00
2013-6-21,92.8,82.2,75.2,79.4,76.2,73.7,100,83,60,30.30,30.25,8,5,21,0.00
2013-6-22,93.6,89.4,83.1,81.4,80.4,78.1,89,75,61,30.12,30.09,5,2,8,0.00
2013-6-23,82.4,81.7,81.3,79.8,79.2,78.9,94,92,91,30.16,30.13,2,1,4,0.00
2013-6-24,81.3,78.7,76.1,78.8,77.6,76.1,100,97,92,30.19,30.15,2,1,5,0.00
2013-6-25,88.2,82.1,76.5,80.7,79.2,76.5,100,92,78,30.21,30.19,2,1,8,0.00
2013-6-26,96.8,94.9,90.5,83.3,81.2,79.9,74,65,61,30.22,30.17,3,1,5,0.00
2013-6-27,95.5,86.9,84.7,84.5,80.4,79.3,85,81,68,30.17,30.09,3,1,8,0.00
2013-6-28,89.6,80.2,70.9,80.2,70.8,63.9,100,75,47,30.21,30.08,15,3,25,0.01
2013-6-29,84.7,79.8,69.4,65.1,59.0,55.5,85,50,39,30.12,30.06,11,6,25,0.00
2013-6-30,79.2,71.2,63.3,65.5,63.2,61.3,96,77,56,30.25,30.11,9,4,22,0.00
2013-7-1,79.3,74.3,60.8,63.1,58.1,47.9,91,59,34,30.31,30.27,9,4,20,0.00
2013-7-2,80.8,68.2,53.8,62.5,57.6,53.0,100,73,41,30.36,30.29,7,2,15,0.00
2013-7-3,84.9,69.6,55.8,66.1,60.4,55.8,100,76,46,30.36,30.25,6,1,19,0.00
2013-7-4,85.8,73.1,61.0,69.9,63.1,58.2,93,73,45,30.32,30.22,7,1,14,0.00
2013-7-5,91.8,83.3,69.8,68.8,66.1,63.0,86,58,42,30.29,30.17,5,2,14,0.00
2013-7-6,85.5,74.8,66.4,76.3,69.3,62.8,99,83,61,30.29,30.18,4,1,14,0.01
2013-7-7,90.9,80.5,71.8,75.2,70.9,66.9,93,74,52,30.29,30.22,6,2,17,0.00
2013-7-8,95.4,83.1,71.1,77.1,72.5,68.3,92,72,50,30.34,30.26,6,2,16,0.00
2013-7-9,97.7,86.2,76.1,78.2,74.9,72.5,92,71,46,30.32,30.18,7,4,18,0.00
2013-7-10,98.6,86.5,77.0,80.5,76.0,69.6,93,72,44,30.28,30.16,5,1,12,0.00
2013-7-11,88.0,80.3,72.9,69.9,67.4,65.7,81,66,53,30.25,30.19,3,0,7,0.00
2013-7-12,94.3,80.4,69.1,76.0,69.8,64.1,87,71,53,30.30,30.22,5,1,14,0.00
2013-7-13,93.7,79.0,66.4,74.1,65.3,57.1,78,64,46,30.31,30.21,91,2,91,0.00
2013-7-14,89.6,77.6,63.5,68.5,64.5,53.9,97,67,38,30.32,30.22,5,1,15,0.00
2013-7-15,81.3,73.0,69.8,74.3,71.8,61.1,100,96,73,30.43,30.32,4,1,12,0.30
2013-7-16,93.6,78.5,68.2,81.3,74.0,68.0,100,87,51,30.52,30.42,3,0,15,0.06
2013-7-17,94.6,81.6,69.8,77.9,73.5,69.8,100,79,51,30.57,30.44,6,1,12,0.00
2013-7-18,97.2,82.7,69.1,78.2,72.9,69.1,100,76,44,30.47,30.27,3,1,10,0.00
2013-7-19,97.5,83.9,70.5,78.1,73.3,69.3,100,74,41,30.30,30.14,5,1,13,0.00
2013-7-20,98.4,86.1,70.5,77.3,73.8,69.9,100,69,45,30.24,30.06,19,2,19,0.20
2013-7-21,82.0,75.5,69.4,78.0,74.4,69.5,100,96,82,30.21,30.09,6,1,16,0.15
2013-7-22,87.6,76.7,66.7,78.4,72.9,66.8,100,88,69,30.17,30.06,8,3,20,0.07
2013-7-23,95.7,86.6,77.9,82.0,78.7,74.1,96,78,61,30.15,30.04,5,3,14,0.00
2013-7-24,84.9,78.4,68.0,75.8,71.4,66.2,100,80,62,30.28,30.19,8,2,17,0.07
2013-7-25,90.1,76.1,63.0,73.5,69.0,63.0,100,81,48,30.35,30.26,6,1,10,0.00
2013-7-26,75.2,71.7,65.8,74.8,70.4,65.9,100,96,88,30.28,30.24,4,0,15,0.70
2013-7-27,77.7,69.0,60.6,66.2,63.1,58.6,100,83,54,30.34,30.23,5,2,12,0.00
2013-7-28,69.8,65.1,62.1,68.9,64.9,61.6,100,99,95,30.32,30.26,2,0,5,0.08
2013-7-29,72.7,70.9,69.6,72.7,70.9,69.6,100,100,100,30.25,30.23,5,1,6,0.58
2013-7-30,86.4,78.2,0.0,81.9,77.1,70.7,100,95,81,30.29,0.00,3,1,10,0.64
2013-7-31,85.5,77.5,70.2,79.2,74.7,70.2,100,92,68,30.34,30.25,7,2,13,0.00
2013-8-1,88.2,75.9,64.6,74.9,70.9,64.6,100,86,60,30.37,30.22,3,0,10,0.00
2013-8-2,89.8,78.2,71.2,81.4,76.2,71.0,100,94,72,30.23,30.10,6,2,19,0.01
2013-8-3,91.2,78.3,68.9,81.7,76.1,68.9,100,94,68,30.34,30.12,13,2,26,0.60
2013-8-4,75.9,73.5,71.1,75.8,73.5,71.1,100,100,100,30.40,30.26,3,0,9,0.91
2013-8-5,92.8,79.8,70.2,84.9,77.7,70.2,100,94,73,30.28,30.07,8,2,17,0.14
2013-8-6,88.3,79.5,70.7,84.8,78.3,70.7,100,96,78,30.20,30.04,8,2,19,0.83
2013-8-7,81.0,77.1,74.5,79.6,76.9,74.5,100,99,94,30.18,30.14,1,0,3,0.07
2013-8-8,86.4,76.5,71.4,80.2,75.4,71.5,100,97,76,30.25,30.11,6,1,12,0.51
2013-8-9,80.6,72.4,66.2,77.6,71.9,66.0,100,99,84,30.34,30.18,8,1,15,0.21
2013-8-10,84.6,74.9,67.6,75.7,71.3,67.7,100,89,67,30.40,30.31,5,2,10,0.00
2013-8-11,88.5,76.7,68.2,80.2,74.6,68.0,100,94,75,30.37,30.26,3,1,13,0.00
2013-8-12,81.7,76.3,72.0,76.9,74.8,71.8,100,95,79,30.30,30.21,2,0,5,0.20
2013-8-13,80.6,73.7,66.2,78.0,71.1,64.7,100,92,70,30.34,30.24,6,2,12,0.00
2013-8-14,79.7,69.1,60.1,69.4,64.6,59.9,100,87,63,30.42,30.32,3,1,12,0.00
2013-8-15,72.0,61.3,55.2,64.0,59.7,55.2,100,95,70,30.39,30.27,5,0,14,0.00
2013-8-16,79.3,68.3,59.9,66.9,63.5,59.9,100,86,59,30.40,30.30,3,1,9,0.00
2013-8-17,80.1,67.1,55.8,66.8,62.4,55.6,100,86,58,30.42,30.32,6,1,10,0.00
2013-8-18,84.9,71.0,59.7,73.3,66.5,59.7,100,87,61,30.41,30.31,3,0,12,0.00
2013-8-19,88.3,73.1,61.5,74.8,67.2,61.5,100,84,51,30.38,30.26,3,0,9,0.00
2013-8-20,89.6,75.6,64.0,74.5,69.3,64.1,100,83,53,30.34,30.26,3,1,10,0.00
2013-8-21,91.4,77.1,64.9,76.5,71.3,64.8,100,84,55,30.36,30.28,5,1,13,0.00
2013-8-22,91.4,79.2,68.2,77.8,73.9,68.2,100,85,59,30.37,30.26,4,1,12,0.00
2013-8-23,93.2,79.3,67.1,79.8,73.2,67.1,100,84,52,30.34,30.25,2,0,8,0.00
2013-8-24,93.6,79.9,69.4,79.2,74.5,69.3,100,85,58,30.40,30.30,5,1,14,0.00
2013-8-25,93.9,79.8,70.9,80.5,74.9,70.9,100,87,59,30.47,30.38,4,1,10,0.00
2013-8-26,93.0,81.3,72.7,79.0,75.6,72.7,100,84,60,30.46,30.34,6,2,16,0.00
2013-8-27,92.3,80.0,68.0,77.0,72.5,68.0,100,80,51,30.38,30.28,5,2,19,0.00
2013-8-28,81.5,77.1,75.0,81.6,75.6,73.9,100,95,86,30.30,30.28,0,0,3,0.00
2013-8-29,97.7,83.1,72.1,78.4,75.2,72.0,100,80,48,30.32,30.23,4,1,13,0.00
2013-8-30,97.3,85.4,72.7,79.8,76.2,72.7,100,76,52,30.26,30.13,5,2,16,0.00
2013-8-31,98.4,83.8,72.9,80.0,75.9,72.7,100,80,49,30.16,30.05,5,1,17,0.00
2013-9-1,84.9,79.2,73.4,77.7,74.9,72.2,100,87,71,30.18,30.04,8,2,22,0.00
2013-9-2,83.1,74.3,64.0,75.4,67.7,64.1,100,82,57,30.29,30.17,6,2,13,0.00
2013-9-3,88.0,71.5,56.8,71.8,63.6,56.9,100,80,45,30.35,30.25,4,1,10,0.00
2013-9-4,90.7,73.3,58.3,72.2,65.0,58.1,100,79,44,30.41,30.31,3,0,7,0.00
2013-9-5,91.0,74.5,60.6,72.1,65.8,60.6,100,78,44,30.45,30.35,3,0,7,0.00
2013-9-6,92.1,75.7,61.7,72.3,67.5,61.5,100,79,46,30.40,30.26,4,1,8,0.00
2013-9-7,95.9,80.2,67.5,73.6,70.2,66.0,96,75,45,30.30,30.18,4,1,12,0.00
2013-9-8,97.3,82.9,72.3,76.7,72.3,68.8,93,72,44,30.22,30.13,5,1,14,0.00
2013-9-9,95.9,81.6,68.9,73.3,70.3,66.7,96,72,40,30.26,30.17,6,2,16,0.00
2013-9-10,93.9,80.5,71.1,72.9,69.8,66.9,93,72,45,30.37,30.24,7,2,17,0.00
2013-9-11,93.9,79.0,66.2,75.7,70.7,66.2,100,79,48,30.41,30.29,4,1,9,0.00
2013-9-12,87.3,76.2,68.5,76.2,72.2,68.4,100,88,65,30.37,30.28,7,2,13,0.00
2013-9-13,78.6,68.8,55.6,71.6,58.0,53.3,100,71,46,30.39,30.27,6,2,13,0.00
2013-9-14,82.9,65.7,52.0,74.7,60.0,52.0,100,83,57,30.35,30.22,4,1,12,0.00
2013-9-15,90.1,74.4,61.2,73.1,64.0,56.5,99,72,48,30.31,30.23,6,2,17,0.00
2013-9-16,77.7,70.8,66.7,75.7,70.5,66.8,100,99,91,30.45,30.30,5,1,9,0.19
2013-9-17,77.4,71.1,66.4,75.2,70.8,66.4,100,99,88,30.42,30.24,4,0,13,0.25
2013-9-18,90.1,77.7,69.4,78.7,72.5,68.9,100,85,58,30.26,30.15,7,3,18,0.08
2013-9-19,92.3,78.5,69.1,76.6,72.5,68.9,100,83,55,30.22,30.08,10,4,33,0.00
2013-9-20,71.1,65.9,54.0,69.3,62.7,54.0,100,90,64,30.28,30.18,8,2,16,0.01
2013-9-21,73.8,60.1,47.3,59.1,53.1,47.3,100,81,45,30.29,30.17,6,1,15,0.00
2013-9-22,79.5,62.4,48.4,61.1,54.2,48.4,100,79,43,30.25,30.11,6,1,12,0.00
2013-9-23,81.5,64.8,50.4,62.6,57.7,50.4,100,81,49,30.19,30.05,6,1,18,0.00
2013-9-24,78.6,68.4,60.8,64.4,61.4,59.0,96,79,62,30.12,30.08,6,3,15,0.00
2013-10-9,67.1,59.1,54.7,67.1,58.6,52.7,100,98,90,30.01,29.92,1,0,6,0.87
2013-10-10,81.3,64.2,50.7,64.0,57.7,50.7,100,82,50,29.98,29.79,5,1,12,0.00
2013-10-11,79.0,67.2,55.8,70.3,64.3,55.6,100,91,73,29.81,29.71,11,4,26,0.00
2013-10-12,70.7,63.1,53.8,67.5,57.1,50.6,100,83,53,30.08,29.75,8,3,16,0.76
2013-10-13,71.6,59.9,52.2,56.7,52.2,49.8,100,78,49,30.23,30.08,5,1,12,0.20
2013-10-14,64.6,60.6,56.3,63.7,56.4,50.2,100,87,68,30.15,29.80,10,2,27,0.21
2013-10-15,64.6,57.3,51.1,64.2,55.5,47.3,100,94,79,29.96,29.76,11,3,21,0.33
2013-10-16,57.4,49.6,38.8,49.2,45.6,38.8,100,87,68,30.02,29.90,6,2,16,0.02
2013-10-17,65.7,53.1,46.2,51.3,48.2,46.0,100,86,55,29.94,29.84,5,1,13,0.00
2013-10-18,53.1,45.7,38.8,49.1,44.3,38.8,100,95,79,30.00,29.88,9,3,16,0.31
2013-10-19,60.8,46.2,35.6,47.8,41.5,35.6,100,86,53,30.01,29.87,6,2,15,0.00
2013-10-20,71.6,55.8,45.5,48.7,44.7,40.2,95,70,35,29.88,29.73,8,3,21,0.00
2013-10-21,57.2,48.6,37.8,49.5,43.1,37.1,100,83,55,30.00,29.82,9,2,17,0.00
2013-10-22,68.4,51.5,36.1,51.1,43.1,35.8,100,76,39,29.97,29.81,13,3,25,0.00
2013-10-23,62.8,47.2,35.2,46.7,41.1,35.2,100,81,51,30.08,29.90,4,1,9,0.00
2013-10-24,52.2,43.4,32.9,43.0,36.6,30.4,100,79,44,30.31,29.97,9,3,19,0.00
2013-10-25,61.3,44.1,29.5,38.9,33.0,28.1,100,71,29,30.38,30.07,6,1,14,0.00
2013-10-26,64.2,53.5,45.1,54.3,47.1,37.0,99,79,69,30.08,29.98,6,2,19,0.00
2013-10-27,68.2,48.0,30.4,48.1,37.4,30.4,100,72,33,30.03,29.86,5,1,8,0.00
2013-10-28,73.2,55.7,39.4,61.3,51.6,37.7,100,88,57,30.04,29.90,6,1,13,0.00
2013-10-29,68.0,61.8,54.5,67.7,61.8,54.0,100,100,98,30.00,29.85,5,2,13,2.07
2013-10-30,70.9,67.1,64.4,70.6,67.1,64.4,100,100,99,29.90,29.67,9,5,29,0.31
2013-10-31,66.4,58.0,49.5,66.4,58.0,49.5,100,100,96,29.67,29.40,12,3,24,0.96
2013-11-1,65.1,53.6,43.3,52.4,47.5,43.3,100,82,51,29.90,29.62,11,2,20,0.00
2013-11-2,56.1,46.5,36.0,44.7,40.8,36.0,100,82,52,30.10,29.89,12,4,18,0.00
2013-11-3,63.7,48.8,33.8,45.3,40.5,33.6,100,76,45,30.09,29.88,10,3,21,0.00
2013-11-4,68.2,57.6,50.4,55.9,51.6,44.8,96,81,62,30.02,29.86,13,5,37,0.01
2013-11-5,63.5,58.9,54.9,63.3,58.9,54.9,100,100,95,30.01,29.79,11,4,23,0.84
2013-11-6,63.7,43.7,32.4,63.7,42.2,32.4,100,95,79,30.24,29.79,13,6,23,0.77
2013-11-7,61.2,42.8,29.3,46.4,37.2,29.1,100,84,46,30.31,30.22,8,2,16,0.01
2013-11-8,68.2,52.1,35.4,45.9,40.5,35.4,100,70,34,30.22,29.89,15,5,32,0.00
2013-11-9,68.0,55.3,44.2,50.7,46.1,43.2,99,72,53,30.17,29.94,8,3,20,0.00
2013-11-10,69.1,52.7,38.8,45.1,42.8,38.8,100,73,39,30.27,30.13,4,1,15,0.00
2013-11-11,62.4,53.1,36.0,56.7,48.5,32.8,100,85,70,30.38,30.06,19,5,30,0.00
2013-11-12,36.5,29.3,19.9,32.8,21.1,17.4,92,73,47,30.67,30.38,16,7,31,0.00
2013-11-13,52.7,34.8,17.6,25.0,21.2,17.0,99,63,27,30.57,30.16,9,3,18,0.00
2013-11-14,55.0,44.2,35.1,33.0,26.9,22.3,66,52,30,30.16,29.90,11,6,26,0.00
2013-11-15,64.6,52.1,42.4,52.5,45.2,32.8,98,78,57,29.92,29.70,10,4,19,0.01
2013-11-16,72.5,64.5,52.9,67.4,61.9,52.3,100,92,73,29.70,29.42,17,10,34,0.19
2013-11-17,72.0,65.1,49.8,68.7,45.7,22.3,92,55,20,29.98,29.35,18,9,39,0.00
2013-11-18,50.0,42.4,36.7,40.3,37.3,35.0,97,83,59,30.14,29.93,8,2,13,0.00
2013-11-30,23.0,22.1,21.2,17.3,16.7,15.8,84,80,74,30.13,30.07,10,8,15,0.00
2013-12-1,23.4,23.0,21.4,17.6,15.3,14.3,85,72,69,30.14,30.06,12,8,15,0.00
2013-12-2,21.0,20.8,20.5,19.3,17.7,15.5,95,88,79,30.18,30.13,14,8,17,0.00
2013-12-3,21.2,19.8,18.3,17.3,15.8,14.5,95,85,77,30.19,30.16,14,9,16,0.00
2013-12-4,17.8,17.2,16.5,17.1,16.7,15.9,100,98,93,30.23,30.15,12,9,20,0.00
2013-12-5,18.7,17.0,16.2,16.9,15.6,12.1,100,94,75,30.30,30.22,14,10,17,0.00
2013-12-6,19.4,15.6,10.8,12.4,8.0,5.7,80,71,64,30.46,30.27,16,6,18,0.00
2013-12-7,20.5,15.1,7.7,15.6,9.1,4.2,87,77,66,30.53,30.18,11,4,18,0.00
2013-12-8,29.8,24.6,19.4,29.9,23.2,14.9,100,95,75,30.19,29.86,8,2,14,0.00
2013-12-9,24.6,19.7,15.8,24.6,18.5,15.7,100,95,78,30.25,30.05,10,4,17,0.00
2013-12-10,35.2,21.0,8.1,24.0,16.7,8.1,100,85,59,30.28,30.11,7,2,15,0.04
2013-12-11,34.2,23.5,11.8,25.1,17.5,8.7,100,79,46,30.49,30.15,13,3,21,0.01
2013-12-12,42.4,27.1,8.8,30.2,20.6,7.0,94,78,58,30.48,30.12,12,3,23,0.00
2013-12-13,38.8,36.0,32.4,37.3,33.6,26.3,100,91,69,30.11,29.72,10,4,26,0.47
2013-12-14,35.8,30.5,21.2,35.8,30.3,21.2,100,99,95,30.13,29.73,13,2,22,0.05
2013-12-15,52.2,36.1,19.2,39.4,30.7,19.1,100,83,59,30.13,29.94,9,4,21,0.00
2013-12-16,64.4,49.9,40.8,40.0,36.9,34.4,86,62,40,30.02,29.89,10,4,23,0.00
2013-12-17,54.3,39.4,27.7,40.5,32.6,26.3,100,79,45,30.19,30.00,12,2,19,0.00
2013-12-18,66.2,48.1,29.5,41.8,34.9,26.7,91,64,36,30.16,29.78,14,6,41,0.00
2013-12-19,61.3,60.4,59.4,57.6,57.1,56.6,92,89,85,29.60,29.58,9,5,16,0.00
2013-12-20,27.9,27.5,27.1,27.9,27.4,26.8,100,99,97,29.81,29.71,5,2,9,0.01
2013-12-21,31.8,29.7,27.7,31.8,29.7,27.5,100,100,100,29.72,29.48,0,0,0,0.00
2013-12-22,27.5,26.5,24.4,27.3,26.5,24.5,100,100,100,30.19,29.89,0,0,0,0.00
2013-12-23,21.4,18.1,14.2,21.0,17.8,14.2,100,98,93,30.48,30.36,0,0,0,0.00
2013-12-24,31.5,16.1,9.7,31.5,16.1,9.7,100,100,99,30.46,30.10,0,0,0,0.17
2013-12-25,34.2,31.4,30.0,34.2,31.4,30.0,100,100,100,30.23,30.16,0,0,0,0.01
2013-12-26,43.2,37.7,34.9,38.0,33.7,31.7,89,86,82,30.08,30.06,5,2,8,0.00
2013-12-27,58.5,54.5,46.2,41.4,37.6,34.2,78,54,41,30.05,29.85,9,6,13,0.00
2013-12-28,53.2,46.5,44.8,38.2,36.7,33.4,76,69,49,29.84,29.79,5,3,10,0.00
2013-12-29,46.4,27.7,16.3,40.6,23.3,9.1,95,83,71,30.18,29.81,16,8,27,0.00
2013-12-30,34.7,22.0,9.5,21.1,14.5,6.0,88,73,51,30.22,30.09,6,2,12,0.00
2013-12-31,28.0,25.0,20.1,23.8,19.0,16.2,89,78,70,30.24,30.21,4,2,10,0.00
2014-1-1,54.1,30.1,15.4,33.4,25.4,15.5,100,85,43,30.11,29.78,16,11,27,0.00
2014-1-2,17.6,10.7,5.2,15.7,8.6,4.3,100,91,63,30.32,30.11,11,6,22,0.00